Change the Weather History Date:

Saturday, November 26, 2011

  Actual Average Record
Temperature  
Mean Temperature 39 °F -  
Max Temperature 46 °F 42 °F 71 °F (1998)
Min Temperature 32 °F 24 °F 1 °F (1993)
Degree Days  
Heating Degree Days 26    
Moisture  
Dew Point 21 °F    
Average Humidity 45    
Maximum Humidity 65    
Minimum Humidity 25    
Precipitation  
Precipitation 0.00 in - - ()
Sea Level Pressure  
Sea Level Pressure 30.07 in    
Wind  
Wind Speed 28 mph (NNW)    
Max Wind Speed 41 mph    
Max Gust Speed 51 mph    
Visibility 10 miles    
Events      
Averages and records for this station are not official NWS values.
T = Trace of Precipitation, MM = Missing Value Source: NWS Daily Summary

Daily Weather History Graph

Daily Weather History Graph

Search for Another Location

Airport or City:

Trip Planner

Search our weather history database for the weather conditions in past years. The results will help you decide how hot, cold, wet, or windy it might be!

Date:

Astronomy

Nov. 26, 2011 Rise Set
Actual Time 7:31 AM CST 5:06 PM CST
Civil Twilight 7:01 AM CST 5:36 PM CST
Nautical Twilight 6:27 AM CST 6:10 PM CST
Astronomical Twilight 5:54 AM CST 6:43 PM CST
Moon 9:04 AM CST (11/26) 6:38 PM CST (11/26)
Length of Visible Light 10h 35m
Length of Day
9h 34m
Waxing Crescent, 3% of the Moon is Illuminated
Nov 26
Waxing Crescent
Dec 2
First Quarter
Dec 10
Full
Dec 17
Last Quarter
Dec 24
New

Hourly Weather History & Observations

Time (CST) Temp. Windchill Dew Point Humidity Pressure Visibility Wind Dir Wind Speed Gust Speed Precip Events Conditions
12:35 AM 46.4 °F 38.7 °F 32.0 °F 57% 29.74 in 10.0 mi North 20.7 mph - N/A   Clear
12:55 AM 44.8 °F 37.7 °F 31.6 °F 60% 29.76 in 10.0 mi North 16.1 mph - N/A   Clear
1:15 AM 43.0 °F 36.0 °F 31.6 °F 64% 29.78 in 10.0 mi NNW 13.8 mph - N/A   Clear
1:35 AM 43.2 °F 34.0 °F 31.8 °F 64% 29.79 in 10.0 mi NNW 23.0 mph 26.5 mph N/A   Clear
1:55 AM 43.2 °F 34.7 °F 32.0 °F 65% 29.81 in 10.0 mi NNW 19.6 mph 26.5 mph N/A   Clear
2:15 AM 43.5 °F 33.8 °F 32.0 °F 64% 29.82 in 10.0 mi NNW 26.5 mph 33.4 mph N/A   Clear
2:35 AM 43.3 °F 33.4 °F 32.0 °F 64% 29.83 in 10.0 mi NNW 27.6 mph 33.4 mph N/A   Clear
2:55 AM 43.5 °F 33.1 °F 32.0 °F 64% 29.85 in 10.0 mi NNW 31.1 mph 36.8 mph N/A   Clear
3:15 AM 43.2 °F 33.2 °F 31.8 °F 64% 29.85 in 10.0 mi NNW 27.6 mph 33.4 mph N/A   Clear
3:35 AM 43.3 °F 33.0 °F 31.6 °F 63% 29.86 in 10.0 mi NNW 29.9 mph 40.3 mph N/A   Clear
3:55 AM 43.3 °F 32.2 °F 31.5 °F 63% 29.88 in 10.0 mi NNW 35.7 mph 47.2 mph N/A   Clear
4:15 AM 43.2 °F 31.6 °F 30.9 °F 62% 29.90 in 10.0 mi NNW 38.0 mph 49.5 mph N/A   Scattered Clouds
4:35 AM 42.8 °F 31.4 °F 30.0 °F 61% 29.91 in 10.0 mi NNW 35.7 mph 42.6 mph N/A   Scattered Clouds
4:55 AM 42.8 °F 31.8 °F 28.6 °F 57% 29.93 in 10.0 mi NNW 33.4 mph 42.6 mph N/A   Clear
5:15 AM 42.8 °F 32.3 °F 26.8 °F 53% 29.93 in 10.0 mi NNW 29.9 mph 43.7 mph N/A   Clear
5:35 AM 42.8 °F 32.1 °F 26.4 °F 52% 29.95 in 10.0 mi NNW 31.1 mph 39.1 mph N/A   Clear
5:55 AM 42.8 °F 32.3 °F 26.4 °F 52% 29.95 in 10.0 mi NNW 29.9 mph 39.1 mph N/A   Clear
6:15 AM 43.0 °F 33.3 °F 26.4 °F 52% 29.96 in 10.0 mi North 25.3 mph 39.1 mph N/A   Clear
6:35 AM 43.2 °F 33.2 °F 25.7 °F 50% 29.97 in 10.0 mi North 27.6 mph 35.7 mph N/A   Clear
6:55 AM 43.5 °F 33.5 °F 25.7 °F 50% 29.98 in 10.0 mi North 28.8 mph 39.1 mph N/A   Clear
7:15 AM 43.3 °F 33.2 °F 25.7 °F 50% 30.00 in 10.0 mi NNW 28.8 mph 39.1 mph N/A   Clear
7:35 AM 43.2 °F 33.2 °F 25.5 °F 50% 30.01 in 10.0 mi NNW 27.6 mph 36.8 mph N/A   Clear
7:55 AM 43.2 °F 32.6 °F 24.8 °F 48% 30.03 in 10.0 mi NNW 31.1 mph 42.6 mph N/A   Clear
8:15 AM 43.0 °F 31.7 °F 24.8 °F 49% 30.05 in 10.0 mi NNW 35.7 mph 41.4 mph N/A   Clear
8:35 AM 42.1 °F 31.1 °F 24.3 °F 49% 30.06 in 10.0 mi NNW 31.1 mph 42.6 mph N/A   Clear
9:15 AM 41.9 °F 30.2 °F 24.6 °F 50% 30.09 in 10.0 mi NNW 35.7 mph 44.9 mph N/A   Clear
9:35 AM 43.0 °F 32.2 °F 25.3 °F 50% 30.10 in 10.0 mi NNW 32.2 mph 49.5 mph N/A   Clear
9:55 AM 42.8 °F 31.1 °F 25.5 °F 51% 30.11 in 10.0 mi NNW 38.0 mph 48.3 mph N/A   Clear
10:15 AM 43.2 °F 32.1 °F 25.7 °F 50% 30.11 in 10.0 mi NNW 34.5 mph 48.3 mph N/A   Clear
10:35 AM 43.9 °F 32.6 °F 26.1 °F 50% 30.13 in 10.0 mi NNW 38.0 mph 44.9 mph N/A   Clear
10:55 AM 42.8 °F 31.4 °F 25.9 °F 51% 30.13 in 10.0 mi NNW 35.7 mph 46.0 mph N/A   Clear
11:15 AM 41.9 °F 30.4 °F 25.5 °F 52% 30.14 in 10.0 mi NNW 34.5 mph 41.4 mph N/A   Clear
11:35 AM 43.7 °F 32.5 °F 25.3 °F 48% 30.14 in 10.0 mi NNW 36.8 mph 43.7 mph N/A   Clear
11:55 AM 43.7 °F 32.4 °F 24.1 °F 46% 30.14 in 10.0 mi NNW 38.0 mph 49.5 mph N/A   Clear
12:15 PM 44.2 °F 33.3 °F 23.9 °F 45% 30.14 in 10.0 mi NNW 36.8 mph 47.2 mph N/A   Clear
12:35 PM 45.1 °F 34.5 °F 23.2 °F 42% 30.15 in 10.0 mi NNW 36.8 mph 48.3 mph N/A   Clear
12:55 PM 45.5 °F 34.5 °F 21.2 °F 38% 30.15 in 10.0 mi NNW 41.4 mph 47.2 mph N/A   Clear
1:15 PM 45.7 °F 35.3 °F 19.2 °F 35% 30.15 in 10.0 mi NNW 36.8 mph 49.5 mph N/A   Clear
1:35 PM 46.6 °F - 17.6 °F 32% 30.15 in 10.0 mi NNW 38.0 mph 47.2 mph N/A   Clear
1:55 PM 46.4 °F 36.1 °F 16.3 °F 30% 30.15 in 10.0 mi NNW 38.0 mph 48.3 mph N/A   Clear
2:15 PM 45.7 °F 35.0 °F 14.0 °F 28% 30.17 in 10.0 mi NNW 39.1 mph 50.6 mph N/A   Clear
2:35 PM 45.1 °F 34.7 °F 13.3 °F 28% 30.16 in 10.0 mi NNW 35.7 mph 49.5 mph N/A   Clear
2:55 PM 44.8 °F 33.6 °F 12.6 °F 27% 30.18 in 10.0 mi NNW 40.3 mph 48.3 mph N/A   Clear
3:15 PM 44.6 °F 34.1 °F 12.6 °F 27% 30.19 in 10.0 mi NNW 34.5 mph 47.2 mph N/A   Clear
3:35 PM 43.7 °F 32.1 °F 11.8 °F 27% 30.20 in 10.0 mi NNW 40.3 mph 49.5 mph N/A   Clear
3:55 PM 43.3 °F 32.3 °F 11.1 °F 27% 30.21 in 10.0 mi NNW 34.5 mph 47.2 mph N/A   Clear
4:35 PM 42.3 °F 31.2 °F 8.6 °F 25% 30.22 in 10.0 mi NNW 32.2 mph 48.3 mph N/A   Clear
4:55 PM 41.4 °F 30.0 °F 7.9 °F 25% 30.23 in 10.0 mi NNW 32.2 mph 44.9 mph N/A   Clear
5:35 PM 39.6 °F 29.0 °F 8.4 °F 28% 30.25 in 10.0 mi NNW 24.2 mph 33.4 mph N/A   Clear
5:55 PM 38.5 °F 27.1 °F 9.0 °F 30% 30.25 in 10.0 mi NNW 26.5 mph 33.4 mph N/A   Clear
6:15 PM 38.7 °F 27.1 °F 8.6 °F 29% 30.26 in 10.0 mi NNW 27.6 mph 38.0 mph N/A   Clear
6:35 PM 37.6 °F 26.1 °F 8.6 °F 30% 30.27 in 10.0 mi NNW 25.3 mph 34.5 mph N/A   Clear
6:55 PM 37.4 °F 25.4 °F 8.6 °F 30% 30.28 in 10.0 mi NNW 27.6 mph 34.5 mph N/A   Clear
7:15 PM 36.0 °F 26.0 °F 9.1 °F 33% 30.27 in 10.0 mi North 17.3 mph - N/A   Clear
7:35 PM 35.1 °F 23.5 °F 11.1 °F 37% 30.28 in 10.0 mi NNW 21.9 mph 26.5 mph N/A   Clear
8:15 PM 33.3 °F 22.1 °F 10.0 °F 38% 30.29 in 10.0 mi NNW 18.4 mph 24.2 mph N/A   Clear
8:35 PM 33.1 °F 21.5 °F 8.6 °F 36% 30.29 in 10.0 mi NNW 19.6 mph 27.6 mph N/A   Clear
8:55 PM 32.9 °F 21.6 °F 7.7 °F 35% 30.29 in 10.0 mi NNW 18.4 mph 27.6 mph N/A   Clear
9:15 PM 32.0 °F 20.1 °F 7.7 °F 36% 30.30 in 10.0 mi NNW 19.6 mph 23.0 mph N/A   Clear
10:15 PM 30.4 °F 19.1 °F 7.0 °F 37% 30.31 in 10.0 mi NNW 16.1 mph - N/A   Clear
10:35 PM 30.0 °F 18.7 °F 6.6 °F 37% 30.31 in 10.0 mi NNW 16.1 mph - N/A   Clear
10:55 PM 29.3 °F 18.2 °F 6.1 °F 37% 30.32 in 10.0 mi NNW 15.0 mph - N/A   Clear
11:15 PM 29.3 °F 18.2 °F 5.4 °F 36% 30.32 in 10.0 mi NNW 15.0 mph - N/A   Clear
11:35 PM 28.9 °F 16.9 °F 4.5 °F 35% 30.32 in 10.0 mi NNW 17.3 mph - N/A   Clear
11:55 PM 28.8 °F 16.6 °F 4.1 °F 35% 30.32 in 10.0 mi NNW 17.3 mph - N/A   Clear